#timestamp,LO_Frequency,Hit,StdDev 
1578177575.6,286047021.1,P
1578177595.4,286047021.0,P
1578177615.3,286047023.5,P
1578177635.1,286047023.9,Y
1578177655.9,286047005.2,P
1578177675.7,286047005.0,N
1578177695.5,286047005.2,N
1578177715.4,286047004.6,N
1578177735.2,286047006.8,N
1578177755.0,286047006.4,N
1578177755.9,286047006.4,N
1578177775.8,286047007.1,N
1578177795.6,286047004.8,N
1578177815.5,286047004.5,N
1578177835.3,286047004.7,N
1578177855.1,286047004.2,N
1578177875.9,286047003.9,N
1578177895.7,286047002.0,N
1578177915.5,286047001.3,N
1578177935.4,286047003.5,N
1578177955.2,286047003.9,N
1578177975.1,286047001.8,N
1578177976.0,286047001.8,N
1578177995.8,286047002.1,N
1578178015.6,286047002.3,N
1578178035.5,286046999.8,N
1578178055.3,286047000.8,N
1578178075.2,286047000.3,N
1578178095.9,286047002.1,N
1578178115.7,286047001.3,N
1578178135.6,286047003.0,N
1578178155.4,286047006.3,N
1578178175.3,286047007.9,N
1578178195.1,286047007.4,N
1578178196.0,286047007.4,Y
1578178215.8,286047001.7,P
1578178235.7,286046999.9,N
1578178255.5,286047002.8,N
1578178275.3,286047001.0,N
1578178295.2,286046999.1,N
1578178315.0,286046999.6,N
1578178315.9,286046999.6,N
1578178335.8,286046997.2,N
1578178355.6,286046994.9,N
1578178375.4,286046999.5,N
1578178395.3,286046996.9,N
1578178415.1,286046999.3,N
1578178435.9,286046998.4,N
1578178455.7,286047000.3,N
1578178475.5,286047000.8,N
1578178495.4,286047001.0,N
1578178515.2,286047000.3,N
1578178535.0,286047000.4,N
1578178535.9,286047000.4,N
1578178555.8,286047002.8,N
1578178575.6,286047001.9,N
1578178595.5,286047002.5,N
1578178615.3,286047002.7,N
1578178635.1,286047000.5,N
1578178655.9,286047002.5,N
1578178675.7,286047004.2,N
1578178695.5,286047005.1,N
1578178715.4,286047004.7,N
1578178735.2,286047006.7,N
1578178755.1,286047006.4,N
1578178756.0,286047006.4,N
1578178775.8,286047007.0,N
1578178795.6,286047009.0,Y
